Meteopurmerend
purmerend
Purmerend - Baaienwijk



My webcam  My webcam


waarschuwing voor Onweer Meer informatie blitzortung!


Regen radar Meer informatie rain snow radar


Bezoek onze andere website:

CandyAppleRed WebdesignWebdesign Purmerend Candy Apple Red

MeteopurmerendBlog

Template documentation
and downloads



Onweer van: 19-06-2019 18:00 tot: 23:00 waarschuwing voor: Onweer niveau: Geel info button
Enkele onweersbuien, mogelijk met hagel en windstoten tot ca. 75 km/uur.Verkeer en buitenactiviteiten kunnen hinder ondervinden.Mijd open water en open gebied, schuil niet onder bomen.Volg weerberichten en waarschuwingen.

15 daagse weersverwachting Verona (IT)

  • Overzicht
  • Per uur
  • 15 dagen
  • Extra
  • Vergelijk
  • Kaarten
  • Dagkaart
  • Meer »
  • Info
  • Statistieken
  • Directe link
    Temp 6h Neerslag Wind  
 05:28     21:07    Daglengte: 15:39 Vandaag
20:00
29°
 
1
 05:29     21:07    Daglengte: 15:38 Morgen
02:00
22°
 
1
08:00
23°
 
1
14:00
30°
 
2
20:00
28°
 
2
 05:29     21:08    Daglengte: 15:39 Vrijdag 21 Jun
02:00
22°
 
1
08:00
23°
 
1
14:00
29°
0.8 mm
2
20:00
28°
 
1
 05:29     21:08    Daglengte: 15:39 Zaterdag 22 Jun
02:00
23°
 
4
08:00
24°
1.9 mm
3
14:00
27°
5.2 mm
4
warningclass
Locatie info
Region: Veneto
Latitude: 45.4381°N
Longitude: 10.9916°E
62 masl
Postcode: 37122
Temp/Neerslag /Baro Onweer/Dauwpunt
    Temp Baro 1h Neerslag Dauwpunt Wind UV Bewolking  
 05:28     21:07    Daglengte: 15:39 Vandaag
20:00
29°
1010.8 hPa
48%
19.3°
1
Windvlaag: -1.2 m/s
15%
21:00
27°
1011.0 hPa
16%
18.7°
2
Windvlaag: -0.2 m/s
12%
22:00
25°
1011.5 hPa
14%
19.0°
1
Windvlaag: -0.2 m/s
28%
23:00
24°
1011.8 hPa
14%
17.7°
1
Windvlaag: 0.8 m/s
36%
 05:29     21:07    Daglengte: 15:38 Morgen
00:00
23°
1011.8 hPa
14%
17.0°
2
Windvlaag: 0.8 m/s
3%
01:00
23°
1011.8 hPa
14%
16.6°
1
Windvlaag: 0.9 m/s
2%
02:00
22°
1011.6 hPa
14%
16.7°
1
Windvlaag: 0.7 m/s
9%
03:00
21°
1011.7 hPa
14%
16.6°
1
Windvlaag: 0.8 m/s
18%
04:00
21°
1011.6 hPa
14%
17.0°
1
Windvlaag: 0.4 m/s
2%
05:00
20°
1011.6 hPa
14%
17.0°
1
Windvlaag: -0 m/s
1%
06:00
20°
1011.8 hPa
14%
16.9°
1
Windvlaag: -0.1 m/s
0%
07:00
22°
1012.0 hPa
14%
17.6°
1
Windvlaag: 0.2 m/s
1%
08:00
23°
1012.1 hPa
14%
18.2°
1
Windvlaag: 0.2 m/s
11%
09:00
25°
1012.2 hPa
14%
18.9°
1
Windvlaag: 1.2 m/s
13%
10:00
26°
1012.1 hPa
20%
19.0°
2
Windvlaag: 1.4 m/s
7%
11:00
28°
1012.0 hPa
21%
18.9°
2
Windvlaag: 1.6 m/s
11%
12:00
28°
1011.9 hPa
23%
17.8°
2
Windvlaag: 2 m/s
17%
13:00
29°
1011.8 hPa
29%
17.0°
2
Windvlaag: 2.4 m/s
3%
14:00
30°
1011.5 hPa
26%
16.8°
2
Windvlaag: 1.8 m/s
3%
15:00
30°
1011.2 hPa
70%
16.6°
2
Windvlaag: 2 m/s
3%
16:00
31°
1010.6 hPa
30%
16.4°
2
Windvlaag: 1.1 m/s
8%
17:00
30°
Voelt als: 30.2°
1010.5 hPa
63%
15.6°
3
Windvlaag: 0.4 m/s
12%
18:00
30°
Voelt als: 29.8°
1010.4 hPa
23%
14.8°
3
Windvlaag: -0 m/s
22%
19:00
30°
Voelt als: 29.4°
1010.5 hPa
15%
14.9°
2
Windvlaag: -1.1 m/s
26%
20:00
28°
1010.8 hPa
14%
18.0°
2
Windvlaag: -1.3 m/s
27%
21:00
26°
1011.0 hPa
14%
15.7°
1
Windvlaag: -0.8 m/s
28%
22:00
24°
1011.6 hPa
15%
16.1°
2
Windvlaag: -0.1 m/s
8%
23:00
24°
1012.1 hPa
14%
16.0°
2
Windvlaag: 0.5 m/s
12%
 05:29     21:08    Daglengte: 15:39 Vrijdag 21 Jun
00:00
23°
1012.5 hPa
14%
16.2°
2
Windvlaag: 0.3 m/s
35%
01:00
22°
1012.6 hPa
14%
16.5°
2
Windvlaag: 0.3 m/s
56%
02:00
22°
1012.7 hPa
14%
16.2°
1
Windvlaag: 0.3 m/s
30%
03:00
21°
1012.8 hPa
14%
15.9°
1
Windvlaag: 0.3 m/s
35%
04:00
21°
1012.8 hPa
14%
15.6°
1
Windvlaag: 0.3 m/s
56%
05:00
20°
1012.9 hPa
14%
15.7°
1
Windvlaag: 0.8 m/s
37%
06:00
20°
1013.2 hPa
14%
15.8°
1
Windvlaag: 0.3 m/s
15%
07:00
21°
1013.6 hPa
14%
16.9°
1
Windvlaag: 0.3 m/s
34%
08:00
23°
1014.0 hPa
14%
17.6°
1
Windvlaag: 0.8 m/s
37%
09:00
25°
1014.2 hPa
18%
18.7°
1
Windvlaag: 1.5 m/s
36%
10:00
26°
1014.1 hPa
33%
19.0°
1
Windvlaag: 1.6 m/s
32%
11:00
27°
1014.2 hPa 0.5 mm
81%
18.3°
2
Windvlaag: 1.8 m/s
19%
12:00
28°
1014.2 hPa 0.3 mm
71%
19.4°
2
Windvlaag: 1.9 m/s
33%
13:00
28°
1013.9 hPa
32%
20.0°
2
Windvlaag: 2.2 m/s
12%
14:00
29°
1013.3 hPa
31%
19.7°
2
Windvlaag: 2.4 m/s
16%
15:00
30°
1013.0 hPa
69%
19.8°
2
Windvlaag: 2.6 m/s
15%
16:00
30°
1012.5 hPa
36%
18.2°
2
Windvlaag: 2.7 m/s
20%
17:00
30°
1012.3 hPa
93%
17.9°
1
Windvlaag: 0.8 m/s
34%
18:00
30°
1011.9 hPa
41%
17.9°
2
Windvlaag: -0.6 m/s
60%
19:00
29°
1012.4 hPa
93%
17.8°
2
Windvlaag: -0.8 m/s
38%
20:00
28°
1012.6 hPa
76%
20.1°
1
Windvlaag: -1.2 m/s
12%
21:00
26°
1013.0 hPa
21%
19.0°
2
Windvlaag: -1 m/s
8%
22:00
25°
1013.6 hPa
21%
18.3°
2
Windvlaag: -0.6 m/s
13%
23:00
24°
1013.8 hPa
31%
17.8°
3
Windvlaag: -0.1 m/s
14%
 05:29     21:08    Daglengte: 15:39 Zaterdag 22 Jun
00:00
24°
1014.0 hPa
26%
17.7°
3
Windvlaag: -0.6 m/s
16%
01:00
23°
1014.1 hPa
32%
17.4°
3
Windvlaag: -1 m/s
41%
02:00
23°
1013.8 hPa
38%
16.9°
4
Windvlaag: -1.6 m/s
48%
03:00
22°
1014.1 hPa 1.9 mm
100%
16.0°
4
Windvlaag: -2.2 m/s
69%
04:00
22°
1013.8 hPa
100%
15.8°
4
Windvlaag: -1.8 m/s
73%
05:00
22°
1013.6 hPa
94%
15.4°
5
Windvlaag: -1.5 m/s
59%
06:00
22°
1013.7 hPa
100%
14.7°
5
Windvlaag: -1.1 m/s
44%
07:00
23°
1013.8 hPa
100%
15.4°
3
Windvlaag: 0.8 m/s
30% warningclass
08:00
24°
1014.2 hPa
100%
16.1°
3
Windvlaag: 1.1 m/s
37%
09:00
25°
1014.3 hPa 0.6 mm
100%
16.0°
3
Windvlaag: -0.1 m/s
43%
10:00
25°
1014.3 hPa 1.3 mm
100%
15.7°
3
Windvlaag: -0.7 m/s
43% warningclass
11:00
26°
1014.3 hPa 0.6 mm
100%
15.4°
3
Windvlaag: -0.3 m/s
44% warningclass
12:00
26°
1014.5 hPa 1.0 mm
100%
15.3°
3
Windvlaag: -1.2 m/s
49% warningclass
13:00
27°
1014.4 hPa 0.4 mm
100%
15.1°
4
Windvlaag: -1.4 m/s
45% warningclass
14:00
27°
1014.4 hPa 1.3 mm
100%
14.4°
4
Windvlaag: -0.6 m/s
45% warningclass
15:00
26°
1014.4 hPa 1.3 mm
100%
14.7°
3
Windvlaag: 6.5 m/s
57% warningclass
16:00
26°
1014.3 hPa 2.5 mm
100%
15.0°
3
Windvlaag: 5.6 m/s
64% warningclass
17:00
25°
1014.1 hPa 2.4 mm
100%
15.3°
2
Windvlaag: 4.9 m/s
70% warningclass
18:00
25°
1013.9 hPa 0.7 mm
97%
15.6°
2
Windvlaag: 4.3 m/s
76% warningclass
19:00
24°
1013.9 hPa
72%
16.0°
2
Windvlaag: 3.3 m/s
67%
Temp/Neerslag /Baro Onweer/Dauwpunt
    Temp Baro Neerslag Dauwpunt Wind Bewolking  
 05:28     21:07    Daglengte: 15:39 Vandaag
20:00
29°
1010.8 hPa   19.3°
1
15%
23:00
24°
1011.8 hPa   17.7°
1
36%
 05:29     21:07    Daglengte: 15:38 Morgen
02:00
22°
1011.6 hPa   16.7°
1
9%
05:00
20°
1011.6 hPa   17.0°
1
1%
08:00
23°
1012.1 hPa   18.2°
1
11%
11:00
28°
1012.0 hPa   18.9°
2
11%
14:00
30°
1011.5 hPa   16.8°
2
3%
17:00
30°
Voelt als: 30.2°
1010.5 hPa   15.6°
3
12%
20:00
28°
1010.8 hPa   18.0°
2
27%
23:00
24°
1012.1 hPa   16.0°
2
12%
 05:29     21:08    Daglengte: 15:39 Vrijdag 21 Jun
02:00
22°
1012.7 hPa   16.2°
1
30%
05:00
20°
1012.9 hPa   15.7°
1
37%
08:00
23°
1014.0 hPa   17.6°
1
37%
11:00
27°
1014.2 hPa 0.5 mm 18.3°
2
19%
14:00
29°
1013.3 hPa 0.3 mm 19.7°
2
16%
17:00
30°
1012.3 hPa   17.9°
1
34%
20:00
28°
1012.6 hPa   20.1°
1
12%
23:00
24°
1013.8 hPa   17.8°
3
14%
 05:29     21:08    Daglengte: 15:39 Zaterdag 22 Jun
02:00
23°
1013.8 hPa   16.9°
4
48%
05:00
22°
1013.6 hPa 1.9 mm 15.4°
5
59%
08:00
24°
1014.2 hPa   16.1°
3
37%
11:00
26°
1014.3 hPa 2.4 mm 15.4°
3
44% warningclass
14:00
27°
1014.4 hPa 2.8 mm 14.4°
4
45% warningclass
17:00
25°
1014.1 hPa 6.2 mm 15.3°
2
70% warningclass
20:00
24°
1013.8 hPa 1.5 mm 16.2°
2
78%
23:00
21°
1013.8 hPa 15.3 mm 16.7°
1
44%
 05:29     21:08    Daglengte: 15:39 Zondag 23 Jun
02:00
19°
1013.7 hPa 15.3 mm 16.2°
1
22%
05:00
20°
1014.3 hPa 15.3 mm 16.6°
1
23%
08:00
21°
1014.9 hPa 15.3 mm 17.2°
1
24%
11:00
24°
1015.3 hPa 15.3 mm 18.0°
2
23%
14:00
27°
1015.6 hPa 15.3 mm 18.2°
2
21%
17:00
27°
1015.5 hPa 15.3 mm 19.6°
1
24%
20:00
26°
1015.5 hPa 15.3 mm 20.7°
1
27%
23:00
24°
1016.9 hPa 15.3 mm 19.1°
1
19%
 05:30     21:08    Daglengte: 15:38 Maandag 24 Jun
02:00
21°
1018.1 hPa 15.3 mm 17.5°
1
11%
05:00
22°
1018.6 hPa 15.3 mm 17.8°
1
14%
08:00
24°
1019.1 hPa 15.3 mm 18.3°
0
17%
11:00
27°
1019.2 hPa 15.3 mm 18.2°
1
24%
14:00
29°
1019.3 hPa 15.3 mm 17.5°
1
30%
17:00
29°
1019.1 hPa 15.4 mm 18.8°
1
26%
20:00
28°
1019.0 hPa 15.4 mm 19.9°
0
21%
23:00
25°
1020.3 hPa 15.4 mm 19.0°
1
14%
 05:30     21:08    Daglengte: 15:38 Dinsdag 25 Jun
02:00
22°
1021.5 hPa 15.4 mm 17.9°
2
6%
05:00
24°
1021.6 hPa 15.4 mm 18.1°
1
11%
08:00
25°
1021.8 hPa 15.4 mm 18.3°
1
15%
11:00
28°
1021.7 hPa 15.4 mm 18.4°
1
23%
14:00
31°
1021.5 hPa 15.5 mm 18.0°
2
30%
17:00
30°
1021.1 hPa 15.5 mm 18.9°
2
39%
20:00
29°
1020.8 hPa 15.5 mm 19.7°
2
47%
23:00
27°
1021.7 hPa 15.5 mm 17.8°
2
29%
 05:30     21:08    Daglengte: 15:38 Woensdag 26 Jun
02:00
24°
1022.3 hPa 15.5 mm 15.9°
3
11%
05:00
25°
1022.3 hPa 15.5 mm 17.4°
2
6%
08:00
27°
1022.3 hPa 15.5 mm 19.4°
1
0%
11:00
30°
1022.0 hPa 15.5 mm 19.1°
2
1%
14:00
33°
1021.7 hPa 15.5 mm 18.0°
2
2%
17:00
32°
1021.0 hPa   20.1°
2
1%
20:00
30°
1020.3 hPa 30.9 mm 21.7°
1
0%
 05:31     21:08    Daglengte: 15:37 Donderdag 27 Jun
02:00
22°
1021.0 hPa 30.9 mm 16.9°
2
0%
08:00
27°
1019.9 hPa 30.9 mm 19.3°
1
0%
14:00
34°
1018.2 hPa 30.9 mm 19.8°
4
0%
20:00
31°
1015.9 hPa 30.9 mm 22.3°
1
4%
 05:31     21:08    Daglengte: 15:37 Vrijdag 28 Jun
02:00
25°
1016.8 hPa 30.9 mm 20.2°
1
0%
08:00
28°
1016.5 hPa 30.9 mm 21.3°
0
0%
14:00
35°
1015.5 hPa 30.9 mm 21.4°
2
0%
20:00
34°
1013.6 hPa 30.9 mm 22.1°
1
26%
 05:32     21:08    Daglengte: 15:36 Zaterdag 29 Jun
02:00
26°
1014.5 hPa 31.5 mm 20.2°
1
8%
08:00
26°
1012.7 hPa 32.0 mm 20.9°
1
1%
14:00
33°
1013.5 hPa 0.2 mm 20.0°
2
12%
20:00
31°
1013.3 hPa 0.2 mm 22.8°
1
17%
 05:32     21:08    Daglengte: 15:36 Zondag 30 Jun
02:00
23°
1015.0 hPa 0.3 mm 18.2°
1
26%
08:00
25°
1014.8 hPa   19.6°
2
20%
14:00
32°
1013.6 hPa 0.4 mm 19.9°
2
11%
20:00
30°
1013.1 hPa 1.0 mm 22.5°
1
18%
 05:33     21:08    Daglengte: 15:35 Maandag 01 Jul
02:00
22°
1014.5 hPa 1.1 mm 17.8°
1
28%
08:00
24°
1014.1 hPa 0.5 mm 19.3°
2
19%
14:00
31°
1012.7 hPa 1.0 mm 19.3°
2
13%
20:00
29°
1012.2 hPa 2.4 mm 21.7°
1
27%
 05:33     21:08    Daglengte: 15:35 Dinsdag 02 Jul
02:00
21°
1013.7 hPa 2.1 mm 17.6°
2
37%
08:00
23°
1013.6 hPa 1.0 mm 18.7°
2
21%
14:00
30°
1012.3 hPa 1.7 mm 19.1°
1
15%
20:00
28°
1012.3 hPa 3.9 mm 21.4°
1
29%
 05:34     21:07    Daglengte: 15:33 Woensdag 03 Jul
02:00
21°
1013.9 hPa 1.8 mm 17.1°
2
36%
08:00
22°
1013.9 hPa 0.5 mm 18.1°
2
21%
14:00
29°
1012.6 hPa 1.1 mm 18.7°
2
15%
20:00
28°
1012.5 hPa 3.0 mm 21.0°
0
26%
 05:35     21:07    Daglengte: 15:32 Donderdag 04 Jul
02:00
20°
1014.2 hPa 2.0 mm 16.6°
2
26%
08:00
23°
1014.7 hPa 0.3 mm 17.9°
2
13%
14:00
30°
1014.1 hPa 0.6 mm 18.1°
2
8%
  CAPE Lifted Index Hail Supercell Tornado SRH 3km CL BTM PRES CL TOP PRES Swiss DWD icon SMHI TS
 05:28     21:07    Daglengte: 15:39 Vandaag
20:00 1075 J/kg -4.7 K 0 % 0 % 0 % 0 m²/s² 0 0 -2.9 1
21:00 532 J/kg -3.4 K 0 % 0 % 0 % 0 m²/s² 0 0 -1.21 1
22:00 334 J/kg -3.0 K 0 % 0 % 0 % 0 m²/s² 0 0 -0.96 3
23:00 142 J/kg -2.9 K 0 % 0 % 0 % 0 m²/s² 0 0 -0.62 3
 05:29     21:07    Daglengte: 15:38 Morgen
00:00 72 J/kg -3.3 K 0 % 0 % 0 % 0 m²/s² 0 0 -1.62 1
01:00 0 J/kg -2.9 K 0 % 0 % 0 % 0 m²/s² 0 0 -0.77 0
02:00 0 J/kg -2.8 K 0 % 0 % 0 % 0 m²/s² 0 0 -0.4 0
03:00 0 J/kg -2.5 K 0 % 0 % 0 % 0 m²/s² 0 0 0.14 3
04:00 0 J/kg -2.4 K 0 % 0 % 0 % 0 m²/s² 0 0 0.57 0
05:00 0 J/kg -2.2 K 0 % 0 % 0 % 0 m²/s² 0 0 0.83 0
06:00 0 J/kg -1.5 K 0 % 0 % 0 % 0 m²/s² 0 0 1.89 0
07:00 0 J/kg -0.7 K 0 % 0 % 0 % 0 m²/s² 0 0 2.87 0
08:00 4 J/kg 0.1 K 0 % 0 % 0 % 0 m²/s² 0 0 3.76 1
09:00 16 J/kg -0.5 K 0 % 0 % 0 % 0 m²/s² 0 0 2.86 1
10:00 32 J/kg -0.8 K 0 % 0 % 0 % 0 m²/s² 0 0 2.65 1
11:00 31 J/kg -0.7 K 0 % 0 % 0 % 0 m²/s² 0 0 2.84 2
12:00 39 J/kg -0.9 K 0 % 0 % 0 % 0 m²/s² 0 0 2.76 1
13:00 63 J/kg -1.2 K 0 % 0 % 0 % 0 m²/s² 0 0 2.55 2
14:00 35 J/kg -0.9 K 0 % 0 % 0 % 0 m²/s² 0 0 3.27 2
15:00 10 J/kg -0.6 K 0 % 0 % 0 % 0 m²/s² 0 0 3.45 2
16:00 9 J/kg 0.0 K 0 % 0 % 0 % 0 m²/s² 0 0 3.87 3
17:00 5 J/kg 0.4 K 0 % 0 % 0 % 0 m²/s² 0 0 3.79 3
18:00 0 J/kg 0.7 K 0 % 0 % 0 % 0 m²/s² 0 0 3.58 3
19:00 0 J/kg 0.5 K 0 % 0 % 0 % 0 m²/s² 0 0 3.05 3
20:00 5 J/kg 0.7 K 0 % 0 % 0 % 0 m²/s² 0 0 3.25 3
21:00 3 J/kg 0.4 K 0 % 0 % 0 % 0 m²/s² 0 0 2.53 3
22:00 0 J/kg 0.5 K 0 % 0 % 0 % 0 m²/s² 0 0 2.18 1
23:00 0 J/kg 0.5 K 0 % 0 % 0 % 0 m²/s² 0 0 2 2
 05:29     21:08    Daglengte: 15:39 Vrijdag 21 Jun
00:00 0 J/kg 0.9 K 0 % 0 % 0 % 0 m²/s² 0 0 2.07 3
01:00 0 J/kg 1.4 K 0 % 0 % 0 % 0 m²/s² 0 0 2.72 3
02:00 0 J/kg 1.3 K 0 % 0 % 0 % 0 m²/s² 0 0 2.92 3
03:00 0 J/kg 1.0 K 0 % 0 % 0 % 0 m²/s² 0 0 2.68 3
04:00 0 J/kg 1.0 K 0 % 0 % 0 % 0 m²/s² 0 0 2.92 2
05:00 0 J/kg 0.6 K 0 % 0 % 0 % 0 m²/s² 0 0 2.34 2
06:00 0 J/kg -0.9 K 0 % 0 % 0 % 0 m²/s² 0 0 0.78 3
07:00 0 J/kg -1.4 K 0 % 0 % 0 % 0 m²/s² 0 0 0.52 2
08:00 0 J/kg -1.8 K 0 % 0 % 0 % 0 m²/s² 0 0 0.18 2
09:00 444 J/kg -2.7 K 0 % 0 % 0 % 0 m²/s² 0 0 -0.15 3
10:00 710 J/kg -3.6 K 0 % 0 % 0 % 0 m²/s² 0 0 -0.9 3
11:00 754 J/kg -3.0 K 0 % 0 % 0 % 0 m²/s² 0 0 -0.6 2
12:00 796 J/kg -3.0 K 0 % 0 % 0 % 0 m²/s² 0 0 -0.81 80
13:00 806 J/kg -3.0 K 0 % 0 % 0 % 0 m²/s² 0 0 -0.96 3
14:00 807 J/kg -3.0 K 0 % 0 % 0 % 0 m²/s² 0 0 -0.81 2
15:00 954 J/kg -3.4 K 0 % 0 % 0 % 0 m²/s² 0 0 -0.91 1
16:00 1006 J/kg -3.3 K 0 % 0 % 0 % 0 m²/s² 0 0 -0.24 2
17:00 1029 J/kg -2.9 K 0 % 0 % 0 % 0 m²/s² 0 0 0.43 2
18:00 891 J/kg -2.7 K 0 % 0 % 0 % 0 m²/s² 0 0 1.02 2
19:00 880 J/kg -2.8 K 0 % 0 % 0 % 0 m²/s² 0 0 0.71 1
20:00 970 J/kg -3.1 K 0 % 0 % 0 % 0 m²/s² 0 0 -0.22 1
21:00 861 J/kg -3.0 K 0 % 0 % 0 % 0 m²/s² 0 0 -0.27 0
22:00 801 J/kg -3.0 K 0 % 0 % 0 % 0 m²/s² 0 0 -0.27 1
23:00 572 J/kg -3.2 K 0 % 0 % 0 % 0 m²/s² 0 0 -0.62 0
 05:29     21:08    Daglengte: 15:39 Zaterdag 22 Jun
00:00 456 J/kg -3.5 K 0 % 0 % 0 % 0 m²/s² 0 0 -1.01 0
01:00 539 J/kg -3.3 K 0 % 0 % 0 % 0 m²/s² 0 0 -0.51 3
02:00 359 J/kg -3.6 K 0 % 0 % 0 % 0 m²/s² 0 0 -0.54 3
03:00 90 J/kg -4.3 K 0 % 0 % 0 % 0 m²/s² 0 0 -1.42 81
04:00 0 J/kg -4.4 K 0 % 0 % 0 % 0 m²/s² 0 0 -1.91 3
05:00 0 J/kg -4.3 K 0 % 0 % 0 % 0 m²/s² 0 0 -2.5 3
06:00 0 J/kg -4.1 K 0 % 0 % 0 % 0 m²/s² 0 0 -3.05 81
07:00 0 J/kg -4.2 K 0 % 0 % 0 % 0 m²/s² 0 0 -3.48 95
08:00 0 J/kg -3.7 K 0 % 0 % 0 % 0 m²/s² 0 0 -3.13 81
09:00 51 J/kg -3.2 K 0 % 0 % 0 % 0 m²/s² 0 0 -2.81 80
10:00 102 J/kg -3.4 K 0 % 0 % 0 % 0 m²/s² 0 0 -3.1 95
11:00 434 J/kg -3.3 K 0 % 0 % 0 % 0 m²/s² 0 0 -2.85 80
12:00 937 J/kg -4.2 K 0 % 0 % 0 % 0 m²/s² 0 0 -3.72 95
13:00 1392 J/kg -5.8 K 0 % 0 % 0 % 0 m²/s² 0 0 -5.08 80
14:00 1343 J/kg -5.9 K 0 % 0 % 0 % 0 m²/s² 0 0 -4.88 95
15:00 1373 J/kg -6.1 K 0 % 0 % 0 % 0 m²/s² 0 0 -4.84 95
16:00 1372 J/kg -6.3 K 0 % 0 % 0 % 0 m²/s² 0 0 -4.98 95
17:00 1182 J/kg -5.7 K 0 % 0 % 0 % 0 m²/s² 0 0 -3.78 95
18:00 1003 J/kg -4.9 K 0 % 0 % 0 % 0 m²/s² 0 0 -2.29 80
19:00 875 J/kg -4.0 K 0 % 0 % 0 % 0 m²/s² 0 0 -2.47 3
Temp Baro Wind Neerslag
  EWN Forecast EWN WRFDA DWD ICON FMI HIRLAM MET Norway GFS
 05:28     21:07    Daglengte: 15:39 Vandaag
20:00 28.8° 1010.8 hPa 1.5 m/s 0.0 mm 29.5° 1010.9 hPa 1.4 m/s 0.1 mm 28.7° 1010.2 hPa 1.0 m/s -1.7 mm 28.6° 1011.0 hPa 2.7 m/s 0.0 mm 27.8° 1011.2 hPa 1.1 m/s 0.0 mm 26.4° 1012.1 hPa 1.9 m/s
23:00 24.0° 1011.8 hPa 1.5 m/s 0.0 mm 22.9° 1011.8 hPa 1.7 m/s 2.2 mm 23.9° 1011.4 hPa 1.7 m/s 0.0 mm 23.8° 1012.1 hPa 0.3 m/s 0.0 mm 23.6° 1012.0 hPa 1.4 m/s 0.0 mm 23.3° 1013.6 hPa 0.8 m/s
 05:29     21:07    Daglengte: 15:38 Morgen
02:00 21.6° 1011.6 hPa 1.2 m/s 0.0 mm 21.8° 1011.4 hPa 1.2 m/s 2.2 mm 21.4° 1011.3 hPa 1.3 m/s 0.0 mm 21.2° 1012.0 hPa 0.4 m/s 0.0 mm 21.1° 1011.9 hPa 1.4 m/s 0.0 mm 21.7° 1014.1 hPa 0.7 m/s
05:00 20.3° 1011.6 hPa 0.8 m/s 0.0 mm 19.8° 1010.6 hPa 1.7 m/s 2.2 mm 20.2° 1011.2 hPa 0.6 m/s 0.0 mm 19.2° 1012.2 hPa 0.6 m/s 0.0 mm 20.0° 1012.1 hPa 1.2 m/s 0.0 mm 19.9° 1013.2 hPa 0.3 m/s
08:00 23.3° 1012.1 hPa 0.6 m/s 0.0 mm 23.5° 1011.5 hPa 2.2 m/s 2.2 mm 23.1° 1011.9 hPa 0.5 m/s 0.0 mm 22.1° 1012.3 hPa 0.0 m/s 0.0 mm 23.3° 1012.7 hPa 0.7 m/s 0.0 mm 22.0° 1013.6 hPa 0.9 m/s
11:00 27.6° 1012.0 hPa 2.0 m/s 0.0 mm 27.6° 1011.4 hPa 2.0 m/s 2.2 mm 27.5° 1011.8 hPa 2.3 m/s 0.0 mm 27.5° 1012.4 hPa 1.8 m/s 0.0 mm 27.1° 1012.5 hPa 1.8 m/s 0.0 mm 25.5° 1013.1 hPa 2.2 m/s
14:00 29.7° 1011.5 hPa 2.0 m/s 0.0 mm 29.8° 1011.1 hPa 3.5 m/s 2.2 mm 30.5° 1011.2 hPa 1.6 m/s 0.0 mm 30.1° 1011.8 hPa 2.7 m/s 0.0 mm 29.6° 1012.1 hPa 1.9 m/s 0.0 mm 28.0° 1013.1 hPa 2.2 m/s
17:00 30.3° 1010.5 hPa 3.0 m/s 0.0 mm 30.5° 1009.8 hPa 3.7 m/s 2.2 mm 30.7° 1010.0 hPa 3.0 m/s 0.0 mm 30.2° 1011.0 hPa 3.3 m/s 0.0 mm 29.7° 1011.5 hPa 1.8 m/s 0.0 mm 28.8° 1012.0 hPa 3.0 m/s
20:00 28.5° 1010.8 hPa 1.7 m/s 0.0 mm 28.6° 1009.6 hPa 3.6 m/s 2.2 mm 28.4° 1010.9 hPa 1.1 m/s 0.0 mm 28.6° 1011.0 hPa 1.9 m/s 0.0 mm 27.3° 1011.2 hPa 1.1 m/s 0.0 mm 25.4° 1012.4 hPa 1.7 m/s
23:00 23.8° 1012.1 hPa 1.8 m/s 0.0 mm 23.8° 1011.0 hPa 3.3 m/s 2.2 mm 21.8° 1011.5 hPa 1.4 m/s 0.0 mm 24.4° 1012.6 hPa 1.3 m/s 0.0 mm 23.6° 1013.3 hPa 2.6 m/s 0.0 mm 22.6° 1014.1 hPa 0.9 m/s
 05:29     21:08    Daglengte: 15:39 Vrijdag 21 Jun
02:00 21.5° 1012.7 hPa 1.2 m/s 0.0 mm 22.1° 1011.6 hPa 3.1 m/s 2.2 mm 21.0° 1012.5 hPa 1.1 m/s 0.0 mm 20.9° 1013.0 hPa 0.3 m/s 0.0 mm 21.3° 1013.5 hPa 1.5 m/s 0.0 mm 20.7° 1014.6 hPa 0.7 m/s
05:00 20.0° 1012.9 hPa 0.8 m/s 0.0 mm 20.4° 1011.9 hPa 0.9 m/s 2.2 mm 19.7° 1012.8 hPa 0.9 m/s 0.0 mm 19.1° 1013.2 hPa 0.5 m/s 0.0 mm 19.6° 1013.7 hPa 0.8 m/s 0.0 mm 19.7° 1014.8 hPa 0.9 m/s
08:00 23.5° 1014.0 hPa 0.8 m/s 0.0 mm 23.3° 1012.8 hPa 2.8 m/s 2.2 mm 23.6° 1013.9 hPa 0.1 m/s 0.0 mm 22.0° 1014.2 hPa 0.8 m/s 0.0 mm 23.5° 1015.0 hPa 0.9 m/s 0.0 mm 22.1° 1015.6 hPa 0.2 m/s
11:00 27.0° 1014.2 hPa 2.0 m/s 0.5 mm 27.0° 1013.1 hPa 2.8 m/s 2.2 mm 26.2° 1014.4 hPa 1.1 m/s 0.4 mm 27.9° 1013.8 hPa 2.9 m/s 0.0 mm 26.6° 1015.6 hPa 1.6 m/s 0.6 mm 25.7° 1015.5 hPa 2.0 m/s
14:00 29.4° 1013.3 hPa 2.3 m/s 0.3 mm 29.5° 1012.3 hPa 2.1 m/s 2.2 mm 29.2° 1013.4 hPa 0.8 m/s 0.3 mm 29.0° 1013.3 hPa 2.5 m/s 0.0 mm 28.3° 1014.5 hPa 2.4 m/s 0.3 mm 28.3° 1014.8 hPa 2.6 m/s
17:00 30.4° 1012.3 hPa 1.5 m/s 0.0 mm 30.7° 1011.0 hPa 2.9 m/s 2.2 mm 30.0° 1012.4 hPa 0.8 m/s 0.0 mm 29.4° 1013.6 hPa 1.2 m/s 0.3 mm 28.2° 1013.9 hPa 2.0 m/s
20:00 28.1° 1012.6 hPa 1.2 m/s 0.0 mm 29.9° 1010.6 hPa 0.7 m/s 2.2 mm 26.8° 1012.9 hPa 1.9 m/s 0.1 mm 27.3° 1013.8 hPa 1.0 m/s 0.0 mm 25.8° 1013.8 hPa 1.2 m/s
23:00 24.2° 1013.8 hPa 3.0 m/s 0.0 mm 24.5° 1012.0 hPa 2.3 m/s 2.2 mm 22.6° 1013.9 hPa 1.1 m/s 0.0 mm 23.8° 1015.0 hPa 2.9 m/s 0.0 mm 22.2° 1015.4 hPa 2.0 m/s
 05:29     21:08    Daglengte: 15:39 Zaterdag 22 Jun
02:00 22.7° 1013.8 hPa 3.7 m/s 0.0 mm 23.4° 1012.1 hPa 5.2 m/s 2.2 mm 21.0° 1014.0 hPa 1.1 m/s 0.0 mm 22.3° 1014.9 hPa 3.4 m/s 0.0 mm 21.0° 1015.2 hPa 2.2 m/s
05:00 22.2° 1013.6 hPa 5.0 m/s 1.9 mm 23.8° 1010.4 hPa 5.7 m/s 2.2 mm 19.9° 1014.2 hPa 0.9 m/s 3.9 mm 21.9° 1014.5 hPa 5.1 m/s 0.0 mm 20.3° 1014.4 hPa 1.1 m/s
08:00 24.3° 1014.2 hPa 2.8 m/s 0.0 mm 24.9° 1011.2 hPa 6.6 m/s 2.2 mm 19.5° 1015.9 hPa 1.9 m/s 7.9 mm 24.6° 1014.5 hPa 1.3 m/s 0.0 mm 22.0° 1014.6 hPa 0.7 m/s
11:00 25.6° 1014.3 hPa 3.1 m/s 2.4 mm 26.6° 1011.4 hPa 7.8 m/s 2.7 mm 21.0° 1016.0 hPa 0.4 m/s 3.2 mm 26.0° 1014.7 hPa 2.1 m/s 25.4° 1013.8 hPa 1.9 m/s
14:00 26.8° 1014.4 hPa 3.8 m/s 2.8 mm 28.0° 1011.0 hPa 7.3 m/s 3.0 mm 21.2° 1016.1 hPa 2.4 m/s 3.2 mm 27.4° 1014.9 hPa 3.0 m/s 27.3° 1013.6 hPa 2.1 m/s
17:00 25.1° 1014.1 hPa 2.3 m/s 6.2 mm 28.4° 1009.6 hPa 4.9 m/s 3.0 mm 19.9° 1015.2 hPa 1.3 m/s 7.8 mm 25.8° 1014.5 hPa 2.2 m/s 27.6° 1012.4 hPa 0.3 m/s
20:00 23.7° 1013.8 hPa 1.6 m/s 1.5 mm 26.4° 1010.4 hPa 1.8 m/s 3.2 mm 20.1° 1015.3 hPa 1.7 m/s 0.6 mm 24.1° 1014.0 hPa 1.4 m/s 25.0° 1012.5 hPa 0.2 m/s
23:00 20.8° 1013.8 hPa 1.4 m/s 15.3 mm 20.8° 1013.7 hPa 1.5 m/s 21.3° 1014.0 hPa 1.0 m/s 15.3 mm
 05:29     21:08    Daglengte: 15:39 Zondag 23 Jun
02:00 19.2° 1013.7 hPa 1.4 m/s 15.3 mm 19.1° 1013.6 hPa 1.5 m/s 20.6° 1014.3 hPa 0.9 m/s 15.3 mm
05:00 19.8° 1014.3 hPa 1.3 m/s 15.3 mm 19.9° 1014.2 hPa 1.4 m/s 19.6° 1014.4 hPa 0.6 m/s 15.3 mm
08:00 20.7° 1014.9 hPa 1.1 m/s 15.3 mm 20.6° 1014.9 hPa 1.2 m/s 22.4° 1015.0 hPa 0.5 m/s 15.3 mm
11:00 24.1° 1015.3 hPa 1.6 m/s 15.3 mm 23.9° 1015.2 hPa 1.6 m/s 26.2° 1015.5 hPa 1.5 m/s 15.3 mm
14:00 27.3° 1015.6 hPa 2.1 m/s 15.3 mm 27.2° 1015.6 hPa 2.1 m/s 28.7° 1015.6 hPa 1.8 m/s 15.3 mm
17:00 27.0° 1015.5 hPa 1.4 m/s 15.3 mm 26.8° 1015.5 hPa 1.4 m/s 29.4° 1015.0 hPa 1.6 m/s 15.3 mm
20:00 26.4° 1015.5 hPa 0.6 m/s 15.3 mm 26.3° 1015.5 hPa 0.6 m/s 26.9° 1015.8 hPa 1.0 m/s 15.3 mm
23:00 23.6° 1016.9 hPa 1.0 m/s 15.3 mm 23.6° 1016.8 hPa 0.9 m/s 23.4° 1018.4 hPa 1.4 m/s 15.3 mm
 05:30     21:08    Daglengte: 15:38 Maandag 24 Jun
02:00 21.1° 1018.1 hPa 1.3 m/s 15.3 mm 21.0° 1018.0 hPa 1.3 m/s 22.3° 1019.3 hPa 1.6 m/s 15.3 mm
05:00 22.4° 1018.6 hPa 0.9 m/s 15.3 mm 22.5° 1018.5 hPa 0.9 m/s 21.7° 1019.4 hPa 1.4 m/s 15.3 mm
08:00 24.0° 1019.1 hPa 0.4 m/s 15.3 mm 24.0° 1019.0 hPa 0.4 m/s 24.5° 1019.7 hPa 0.7 m/s 15.3 mm
11:00 26.8° 1019.2 hPa 0.9 m/s 15.3 mm 26.7° 1019.1 hPa 0.8 m/s 28.0° 1019.5 hPa 1.9 m/s 15.3 mm
14:00 29.4° 1019.3 hPa 1.3 m/s 15.3 mm 29.4° 1019.3 hPa 1.2 m/s 29.7° 1019.0 hPa 2.2 m/s 15.3 mm
17:00 28.8° 1019.1 hPa 0.9 m/s 15.4 mm 28.8° 1019.1 hPa 0.8 m/s 29.7° 1018.8 hPa 2.3 m/s 15.4 mm
20:00 28.1° 1019.0 hPa 0.4 m/s 15.4 mm 28.1° 1018.9 hPa 0.3 m/s 27.6° 1019.5 hPa 1.5 m/s 15.4 mm
23:00 25.1° 1020.3 hPa 1.1 m/s 15.4 mm 25.2° 1020.1 hPa 1.1 m/s 24.0° 1021.8 hPa 1.6 m/s 15.4 mm
 05:30     21:08    Daglengte: 15:38 Dinsdag 25 Jun
02:00 22.5° 1021.5 hPa 1.8 m/s 15.4 mm 22.4° 1021.4 hPa 1.9 m/s 23.3° 1022.4 hPa 1.2 m/s 15.4 mm
05:00 23.8° 1021.6 hPa 1.5 m/s 15.4 mm 23.9° 1021.6 hPa 1.5 m/s 22.7° 1021.7 hPa 1.0 m/s 15.4 mm
08:00 25.4° 1021.8 hPa 1.1 m/s 15.4 mm 25.4° 1021.8 hPa 1.1 m/s 25.7° 1021.8 hPa 1.1 m/s 15.4 mm
11:00 28.3° 1021.7 hPa 1.4 m/s 15.4 mm 28.2° 1021.7 hPa 1.4 m/s 28.7° 1021.6 hPa 1.9 m/s 15.4 mm
14:00 31.0° 1021.5 hPa 1.7 m/s 15.5 mm 31.1° 1021.6 hPa 1.7 m/s 30.1° 1020.9 hPa 2.1 m/s 15.5 mm
17:00 30.3° 1021.1 hPa 1.9 m/s 15.5 mm 30.2° 1021.2 hPa 1.9 m/s 31.0° 1019.9 hPa 1.8 m/s 15.5 mm
20:00 29.2° 1020.8 hPa 2.0 m/s 15.5 mm 29.3° 1020.9 hPa 2.1 m/s 28.5° 1020.3 hPa 1.5 m/s 15.5 mm
23:00 26.5° 1021.7 hPa 2.4 m/s 15.5 mm 26.6° 1021.6 hPa 2.5 m/s 25.6° 1022.0 hPa 1.2 m/s 15.5 mm
 05:30     21:08    Daglengte: 15:38 Woensdag 26 Jun
02:00 24.0° 1022.3 hPa 2.9 m/s 15.5 mm 23.9° 1022.4 hPa 3.0 m/s 25.1° 1021.7 hPa 1.7 m/s 15.5 mm
05:00 25.4° 1022.3 hPa 2.0 m/s 15.5 mm 25.5° 1022.5 hPa 2.0 m/s 24.3° 1020.9 hPa 1.6 m/s 15.5 mm
08:00 27.1° 1022.3 hPa 1.0 m/s 15.5 mm 27.1° 1022.5 hPa 1.0 m/s 27.2° 1020.3 hPa 0.7 m/s 15.5 mm
11:00 30.1° 1022.0 hPa 1.8 m/s 15.5 mm 30.1° 1022.2 hPa 1.8 m/s 30.2° 1019.8 hPa 1.9 m/s 15.5 mm
14:00 32.9° 1021.7 hPa 2.5 m/s 15.5 mm 33.0° 1022.0 hPa 2.5 m/s 32.2° 1018.9 hPa 2.4 m/s 15.5 mm
17:00 31.7° 1021.0 hPa 1.8 m/s 15.5 mm 31.6° 1021.2 hPa 1.8 m/s 32.7° 1017.7 hPa 2.1 m/s 15.5 mm
20:00 30.3° 1020.3 hPa 1.1 m/s 15.5 mm 30.3° 1020.5 hPa 1.1 m/s 30.0° 1018.0 hPa 0.9 m/s 15.5 mm
 05:31     21:08    Daglengte: 15:37 Donderdag 27 Jun
02:00 22.5° 1021.0 hPa 1.7 m/s 15.5 mm 22.2° 1021.2 hPa 1.8 m/s 25.5° 1018.6 hPa 1.1 m/s 15.5 mm
08:00 26.8° 1019.9 hPa 0.7 m/s 15.5 mm 26.7° 1020.1 hPa 0.7 m/s 27.7° 1017.3 hPa 0.4 m/s 15.5 mm
14:00 33.7° 1018.2 hPa 3.5 m/s 15.5 mm 33.7° 1018.5 hPa 3.6 m/s 33.5° 1015.2 hPa 2.7 m/s 15.5 mm
20:00 31.5° 1015.9 hPa 1.1 m/s 15.5 mm 31.5° 1016.0 hPa 1.1 m/s 31.0° 1014.5 hPa 1.1 m/s 15.5 mm
 05:31     21:08    Daglengte: 15:37 Vrijdag 28 Jun
02:00 25.3° 1016.8 hPa 1.0 m/s 15.5 mm 25.2° 1016.9 hPa 1.1 m/s 26.1° 1016.1 hPa 0.4 m/s 15.5 mm
08:00 28.2° 1016.5 hPa 0.2 m/s 15.5 mm 28.2° 1016.7 hPa 0.2 m/s 28.2° 1014.3 hPa 0.7 m/s 15.5 mm
14:00 35.3° 1015.5 hPa 1.7 m/s 15.5 mm 35.4° 1015.8 hPa 1.6 m/s 34.4° 1012.3 hPa 3.1 m/s 15.5 mm
20:00 34.1° 1013.6 hPa 0.9 m/s 15.5 mm 34.3° 1013.7 hPa 0.8 m/s 31.3° 1012.4 hPa 1.4 m/s 15.5 mm
 05:32     21:08    Daglengte: 15:36 Zaterdag 29 Jun
02:00 26.1° 1014.5 hPa 1.4 m/s 16.0 mm 26.0° 1014.6 hPa 1.3 m/s 26.8° 1013.9 hPa 2.5 m/s 16.0 mm
08:00 26.5° 1012.7 hPa 1.2 m/s 16.0 mm 26.5° 1012.7 hPa 1.2 m/s 16.0 mm
14:00 33.1° 1013.5 hPa 1.9 m/s 0.2 mm
20:00 31.0° 1013.3 hPa 1.0 m/s 0.2 mm
 05:32     21:08    Daglengte: 15:36 Zondag 30 Jun
02:00 23.2° 1015.0 hPa 1.3 m/s 0.3 mm
08:00 25.1° 1014.8 hPa 1.5 m/s 0.0 mm
14:00 31.8° 1013.6 hPa 2.0 m/s 0.4 mm
20:00 30.1° 1013.1 hPa 0.8 m/s 1.0 mm
 05:33     21:08    Daglengte: 15:35 Maandag 01 Jul
02:00 22.3° 1014.5 hPa 1.2 m/s 1.1 mm
08:00 24.3° 1014.1 hPa 1.6 m/s 0.5 mm
14:00 30.9° 1012.7 hPa 1.6 m/s 1.0 mm
20:00 28.8° 1012.2 hPa 0.8 m/s 2.4 mm
 05:33     21:08    Daglengte: 15:35 Dinsdag 02 Jul
02:00 21.3° 1013.7 hPa 1.7 m/s 2.1 mm
08:00 23.3° 1013.6 hPa 2.1 m/s 1.0 mm
14:00 29.6° 1012.3 hPa 1.4 m/s 1.7 mm
20:00 27.7° 1012.3 hPa 1.1 m/s 3.9 mm
 05:34     21:07    Daglengte: 15:33 Woensdag 03 Jul
02:00 20.6° 1013.9 hPa 1.9 m/s 1.8 mm
08:00 22.5° 1013.9 hPa 2.4 m/s 0.5 mm
14:00 29.2° 1012.6 hPa 2.0 m/s 1.1 mm
20:00 27.8° 1012.5 hPa 0.4 m/s 3.0 mm
 05:35     21:07    Daglengte: 15:32 Donderdag 04 Jul
02:00 20.3° 1014.2 hPa 1.8 m/s 2.0 mm
08:00 22.5° 1014.7 hPa 2.2 m/s 0.3 mm
14:00 29.5° 1014.1 hPa 1.8 m/s 0.6 mm
FMI Hirlam - 7.5 km EWN WRFDA - 12 km DWD ICON - 7 km GFS - 25 km Basiskaart






























































Updatetijd (Europe/Amsterdam) Resolutie Lengte Stap
FMI Hirlam 19:00, 01:00, 07:00, 13:00 7.5 km 49h 1h
EWN WRFDA 16:00, 22:00, 04:00, 10:00 12 km 73h 1h
DWD ICON 17:45, 23:45, 05:45, 11:45 7 km 75h 1h
GFS 14:30, 20:30, 02:30, 08:30 25 km 237h 3h
30+ mm
25-30 mm
20-25 mm
15-20 mm
10-15 mm
6-10 mm
4-6 mm
2-4 mm
1-2 mm
0.5-1 mm
0.2-0.5 mm
0.1-0.2 mm
30+ mm
25-30 mm
20-25 mm
15-20 mm
10-15 mm
6-10 mm
4-6 mm
2-4 mm
1-2 mm
0.5-1 mm
0.2-0.5 mm
0.1-0.2 mm
Sneeuwval
Natte sneeuw
Hagel
Vorst
30+ mm
25-30 mm
20-25 mm
15-20 mm
10-15 mm
6-10 mm
4-6 mm
2-4 mm
1-2 mm
0.5-1 mm
0.2-0.5 mm
0.1-0.2 mm
Sneeuwval
Natte sneeuw
Hagel
Vorst
Onweer
50 mm
40 mm
30 mm
26 mm
22 mm
18 mm
14 mm
10 mm
9 mm
8 mm
7 mm
6 mm
5 mm
4.5 mm
4 mm
3.5 mm
3 mm
2.5 mm
2 mm
1.5 mm
1 mm
0.8 mm
0.6 mm
0.4 mm
0.2 mm
0.05 mm
35°
30°
25°
20°
15°
10°
-5°
-10°
-15°
-20°
-25°
-30°
-35°
33> m/s
29 m/s
25 m/s
21 m/s
17 m/s
14 m/s
11 m/s
8 m/s
5 m/s
3 m/s
0 m/s
2600 J/kg
2400 J/kg
2200 J/kg
2000 J/kg
1800 J/kg
1600 J/kg
1400 J/kg
1200 J/kg
1000 J/kg
800 J/kg
600 J/kg
400 J/kg
200 J/kg
70 dBZ
65 dBZ
60 dBZ
55 dBZ
50 dBZ
45 dBZ
40 dBZ
35 dBZ
30 dBZ
25 dBZ
20 dBZ
15 dBZ
10 dBZ
5 dBZ
-1 K
-2 K
-3 K
-4 K
-5 K
-6 K
-7 K
-8 K
-9 K
950 m²/s²
900 m²/s²
850 m²/s²
800 m²/s²
750 m²/s²
700 m²/s²
650 m²/s²
600 m²/s²
550 m²/s²
500 m²/s²
450 m²/s²
400 m²/s²
350 m²/s²
300 m²/s²
250 m²/s²
200 m²/s²
150 m²/s²
100 m²/s²
46 m/s
44 m/s
42 m/s
40 m/s
38 m/s
36 m/s
34 m/s
32 m/s
30 m/s
28 m/s
26 m/s
24 m/s
22 m/s
20 m/s
16 m/s
12 m/s
8 m/s
4 m/s
30 m/s
28 m/s
26 m/s
24 m/s
22 m/s
20 m/s
18 m/s
16 m/s
14 m/s
12 m/s
10 m/s
8 m/s
6 m/s
4 m/s
2 m/s
3.0
2.8
2.6
2.4
2.2
2.0
1.8
1.6
1.4
1.2
1.0
0.8
0.6
0.4
0.2
15
14
13
12
11
10
9
8
7
6
5
4
3
2
1
90%
80%
70%
60%
50%
40%
30%
20%
10%
42
40
38
36
34
32
30
28
26
24
22
20
18
16
14
12
90+ cm
80-90 cm
70-80 cm
60-70 cm
50-60 cm
40-50 cm
30-40 cm
20-30 cm
10-20 cm
1-10 cm
Sneeuwval
Natte sneeuw
Regen
>120 mm
115 mm
110 mm
105 mm
100 mm
95 mm
90 mm
85 mm
80 mm
75 mm
70 mm
65 mm
60 mm
55 mm
50 mm
45 mm
45 mm
40 mm
35 mm
30 mm
25 mm
20 mm
15 mm
10 mm
5 mm
0.1 mm
960 hPa
880 hPa
800 hPa
720 hPa
640 hPa
560 hPa
584 gpdm
568 gpdm
552 gpdm
536 gpdm
520 gpdm
504 gpdm
488 gpdm
Extreem zwaar Noodweer Kans op onweer
15% 15% 5% 50% 15%

Dag




Kaart






35°
30°
25°
20°